����������;��������(kWh)
2015-10-19 00:00;82,9
2015-10-19 00:15;82,5
2015-10-19 00:30;74,75
2015-10-19 00:45;69,2
2015-10-19 01:00;70,35
2015-10-19 01:15;71,35
2015-10-19 01:30;71,25
2015-10-19 01:45;70,05
2015-10-19 02:00;68,4
2015-10-19 02:15;68,9
2015-10-19 02:30;70,35
2015-10-19 02:45;69,45
2015-10-19 03:00;68,5
2015-10-19 03:15;69,9
2015-10-19 03:30;69,4
2015-10-19 03:45;69,65
2015-10-19 04:00;67,15
2015-10-19 04:15;68,8
2015-10-19 04:30;69,25
2015-10-19 04:45;68,5
2015-10-19 05:00;73
2015-10-19 05:15;74,7
2015-10-19 05:30;75,35
2015-10-19 05:45;67,75
2015-10-19 06:00;71,9
2015-10-19 06:15;70,65
2015-10-19 06:30;73,55
2015-10-19 06:45;78,8
2015-10-19 07:00;77,55
2015-10-19 07:15;78,35
2015-10-19 07:30;79,7
2015-10-19 07:45;81,3
2015-10-19 08:00;138,6
2015-10-19 08:15;145,75
2015-10-19 08:30;113,3
2015-10-19 08:45;112,55
2015-10-19 09:00;111,7
2015-10-19 09:15;125
2015-10-19 09:30;119
2015-10-19 09:45;134
2015-10-19 10:00;132
2015-10-19 10:15;138,7
2015-10-19 10:30;148,2
2015-10-19 10:45;152,45
2015-10-19 11:00;158,75
2015-10-19 11:15;180,05
2015-10-19 11:30;170,95
2015-10-19 11:45;168,25
2015-10-19 12:00;176,85
2015-10-19 12:15;177,8
2015-10-19 12:30;179,15
2015-10-19 12:45;194,7
2015-10-19 13:00;196,2
2015-10-19 13:15;195,25
2015-10-19 13:30;194,4
2015-10-19 13:45;177,3
2015-10-19 14:00;182,8
2015-10-19 14:15;187,75
2015-10-19 14:30;172,7
2015-10-19 14:45;168,05
2015-10-19 15:00;177,15
2015-10-19 15:15;167
2015-10-19 15:30;167,05
2015-10-19 15:45;164,7
2015-10-19 16:00;148,7
2015-10-19 16:15;150,5
2015-10-19 16:30;147,75
2015-10-19 16:45;137,1
2015-10-19 17:00;148,85
2015-10-19 17:15;134,1
2015-10-19 17:30;123,6
2015-10-19 17:45;122,95
2015-10-19 18:00;122,4
2015-10-19 18:15;124,65
2015-10-19 18:30;127,25
2015-10-19 18:45;125,7
2015-10-19 19:00;128,25
2015-10-19 19:15;132,8
2015-10-19 19:30;128,55
2015-10-19 19:45;115,55
2015-10-19 20:00;115,6
2015-10-19 20:15;108,05
2015-10-19 20:30;105,7
2015-10-19 20:45;110,75
2015-10-19 21:00;108,9
2015-10-19 21:15;103,1
2015-10-19 21:30;94,15
2015-10-19 21:45;93,85
2015-10-19 22:00;88,5
2015-10-19 22:15;85,8
2015-10-19 22:30;83,95
2015-10-19 22:45;78,9
2015-10-19 23:00;81,2
2015-10-19 23:15;79,2
2015-10-19 23:30;76,9
2015-10-19 23:45;76,7
2015-10-20 00:00;73,6
2015-10-20 00:15;74,95
2015-10-20 00:30;74,75
2015-10-20 00:45;73,85
2015-10-20 01:00;80,55
2015-10-20 01:15;78,9
2015-10-20 01:30;80,5
2015-10-20 01:45;80,05
2015-10-20 02:00;74,1
2015-10-20 02:15;73,3
2015-10-20 02:30;72,35
2015-10-20 02:45;73,45
2015-10-20 03:00;72,9
2015-10-20 03:15;73,2
2015-10-20 03:30;71,65
2015-10-20 03:45;73,35
2015-10-20 04:00;74,7
2015-10-20 04:15;73,8
2015-10-20 04:30;71,4
2015-10-20 04:45;72,45
2015-10-20 05:00;72,5
2015-10-20 05:15;70,55
2015-10-20 05:30;70,8
2015-10-20 05:45;72,1
2015-10-20 06:00;75,45
2015-10-20 06:15;75
2015-10-20 06:30;77,35
2015-10-20 06:45;80,65
2015-10-20 07:00;79,85
2015-10-20 07:15;82,45
2015-10-20 07:30;82,5
2015-10-20 07:45;86,8
2015-10-20 08:00;147,9
2015-10-20 08:15;150,65
2015-10-20 08:30;112,35
2015-10-20 08:45;124,85
2015-10-20 09:00;118,85
2015-10-20 09:15;138,4
2015-10-20 09:30;127,15
2015-10-20 09:45;148,05
2015-10-20 10:00;150,35
2015-10-20 10:15;165,1
2015-10-20 10:30;170,95
2015-10-20 10:45;173,85
2015-10-20 11:00;169,4
2015-10-20 11:15;185,35
2015-10-20 11:30;190,85
2015-10-20 11:45;186,8
2015-10-20 12:00;191,8
2015-10-20 12:15;192,9
2015-10-20 12:30;177,75
2015-10-20 12:45;192,8
2015-10-20 13:00;195,9
2015-10-20 13:15;190,15
2015-10-20 13:30;201,35
2015-10-20 13:45;197,3
2015-10-20 14:00;194,55
2015-10-20 14:15;189,6
2015-10-20 14:30;186,9
2015-10-20 14:45;182,8
2015-10-20 15:00;190,7
2015-10-20 15:15;176,75
2015-10-20 15:30;183
2015-10-20 15:45;174,45
2015-10-20 16:00;154,7
2015-10-20 16:15;159,7
2015-10-20 16:30;151,6
2015-10-20 16:45;143,85
2015-10-20 17:00;143,65
2015-10-20 17:15;129,8
2015-10-20 17:30;133,9
2015-10-20 17:45;131,05
2015-10-20 18:00;129,35
2015-10-20 18:15;126,4
2015-10-20 18:30;121,85
2015-10-20 18:45;118,35
2015-10-20 19:00;117,3
2015-10-20 19:15;118,85
2015-10-20 19:30;118,45
2015-10-20 19:45;114,1
2015-10-20 20:00;108,7
2015-10-20 20:15;103,65
2015-10-20 20:30;101,15
2015-10-20 20:45;100,5
2015-10-20 21:00;97,45
2015-10-20 21:15;95,5
2015-10-20 21:30;92,75
2015-10-20 21:45;90,75
2015-10-20 22:00;85,3
2015-10-20 22:15;83,55
2015-10-20 22:30;82
2015-10-20 22:45;81,15
2015-10-20 23:00;0
2015-10-20 23:15;0
2015-10-20 23:30;0
2015-10-20 23:45;0
2015-10-21 00:00;0
2015-10-21 00:15;0
2015-10-21 00:30;0
2015-10-21 00:45;0
2015-10-21 01:00;0
2015-10-21 01:15;0
2015-10-21 01:30;0
2015-10-21 01:45;0
2015-10-21 02:00;0
2015-10-21 02:15;0
2015-10-21 02:30;0
2015-10-21 02:45;0
2015-10-21 03:00;0
2015-10-21 03:15;0
2015-10-21 03:30;0
2015-10-21 03:45;0
2015-10-21 04:00;0
2015-10-21 04:15;0
2015-10-21 04:30;0
2015-10-21 04:45;0
2015-10-21 05:00;0
2015-10-21 05:15;0
2015-10-21 05:30;0
2015-10-21 05:45;0
2015-10-21 06:00;0
2015-10-21 06:15;0
2015-10-21 06:30;0
2015-10-21 06:45;0
2015-10-21 07:00;0
2015-10-21 07:15;0
2015-10-21 07:30;0
2015-10-21 07:45;0
2015-10-21 08:00;0
2015-10-21 08:15;0
2015-10-21 08:30;0
2015-10-21 08:45;0
2015-10-21 09:00;0
2015-10-21 09:15;0
2015-10-21 09:30;0
2015-10-21 09:45;0
2015-10-21 10:00;0
2015-10-21 10:15;0
2015-10-21 10:30;0
2015-10-21 10:45;0
2015-10-21 11:00;0
2015-10-21 11:15;0
2015-10-21 11:30;0
2015-10-21 11:45;0
2015-10-21 12:00;0
2015-10-21 12:15;0
2015-10-21 12:30;0
2015-10-21 12:45;0
2015-10-21 13:00;0
2015-10-21 13:15;0
2015-10-21 13:30;0
2015-10-21 13:45;0
2015-10-21 14:00;0
2015-10-21 14:15;0
2015-10-21 14:30;0
2015-10-21 14:45;0
2015-10-21 15:00;0
2015-10-21 15:15;0
2015-10-21 15:30;0
2015-10-21 15:45;0
2015-10-21 16:00;0
2015-10-21 16:15;0
2015-10-21 16:30;0
2015-10-21 16:45;0
2015-10-21 17:00;0
2015-10-21 17:15;0
2015-10-21 17:30;0
2015-10-21 17:45;0
2015-10-21 18:00;0
2015-10-21 18:15;0
2015-10-21 18:30;0
2015-10-21 18:45;0
2015-10-21 19:00;0
2015-10-21 19:15;0
2015-10-21 19:30;0
2015-10-21 19:45;0
2015-10-21 20:00;0
2015-10-21 20:15;0
2015-10-21 20:30;0
2015-10-21 20:45;0
2015-10-21 21:00;0
2015-10-21 21:15;0
2015-10-21 21:30;0
2015-10-21 21:45;0
2015-10-21 22:00;0
2015-10-21 22:15;0
2015-10-21 22:30;0
2015-10-21 22:45;0
2015-10-21 23:00;0
2015-10-21 23:15;0
2015-10-21 23:30;0
2015-10-21 23:45;0
2015-10-22 00:00;0
2015-10-22 00:15;0
2015-10-22 00:30;0
2015-10-22 00:45;0
2015-10-22 01:00;0
2015-10-22 01:15;0
2015-10-22 01:30;0
2015-10-22 01:45;0
2015-10-22 02:00;0
2015-10-22 02:15;0
2015-10-22 02:30;0
2015-10-22 02:45;0
2015-10-22 03:00;0
2015-10-22 03:15;0
2015-10-22 03:30;0
2015-10-22 03:45;0
2015-10-22 04:00;0
2015-10-22 04:15;0
2015-10-22 04:30;0
2015-10-22 04:45;0
2015-10-22 05:00;0
2015-10-22 05:15;0
2015-10-22 05:30;0
2015-10-22 05:45;0
2015-10-22 06:00;0
2015-10-22 06:15;0
2015-10-22 06:30;0
2015-10-22 06:45;0
2015-10-22 07:00;0
2015-10-22 07:15;0
2015-10-22 07:30;0
2015-10-22 07:45;0
2015-10-22 08:00;0
2015-10-22 08:15;0
2015-10-22 08:30;0
2015-10-22 08:45;0
2015-10-22 09:00;0
2015-10-22 09:15;0
2015-10-22 09:30;0
2015-10-22 09:45;0
2015-10-22 10:00;0
2015-10-22 10:15;0
2015-10-22 10:30;0
2015-10-22 10:45;0
2015-10-22 11:00;0
2015-10-22 11:15;0
2015-10-22 11:30;0
2015-10-22 11:45;0
2015-10-22 12:00;0
2015-10-22 12:15;0
2015-10-22 12:30;0
2015-10-22 12:45;0
2015-10-22 13:00;0
2015-10-22 13:15;0
2015-10-22 13:30;0
2015-10-22 13:45;0
2015-10-22 14:00;0
2015-10-22 14:15;0
2015-10-22 14:30;0
2015-10-22 14:45;0
2015-10-22 15:00;0
2015-10-22 15:15;0
2015-10-22 15:30;0
2015-10-22 15:45;0
2015-10-22 16:00;0
2015-10-22 16:15;0
2015-10-22 16:30;0
2015-10-22 16:45;0
2015-10-22 17:00;0
2015-10-22 17:15;0
2015-10-22 17:30;0
2015-10-22 17:45;0
2015-10-22 18:00;0
2015-10-22 18:15;0
2015-10-22 18:30;0
2015-10-22 18:45;0
2015-10-22 19:00;0
2015-10-22 19:15;0
2015-10-22 19:30;0
2015-10-22 19:45;0
2015-10-22 20:00;0
2015-10-22 20:15;0
2015-10-22 20:30;0
2015-10-22 20:45;0
2015-10-22 21:00;0
2015-10-22 21:15;0
2015-10-22 21:30;0
2015-10-22 21:45;0
2015-10-22 22:00;0
2015-10-22 22:15;0
2015-10-22 22:30;0
2015-10-22 22:45;0
2015-10-22 23:00;0
2015-10-22 23:15;0
2015-10-22 23:30;0
2015-10-22 23:45;0
2015-10-23 00:00;0
2015-10-23 00:15;0
2015-10-23 00:30;0
2015-10-23 00:45;0
2015-10-23 01:00;0
2015-10-23 01:15;0
2015-10-23 01:30;0
2015-10-23 01:45;0
2015-10-23 02:00;0
2015-10-23 02:15;0
2015-10-23 02:30;0
2015-10-23 02:45;0
2015-10-23 03:00;0
2015-10-23 03:15;0
2015-10-23 03:30;0
2015-10-23 03:45;0
2015-10-23 04:00;0
2015-10-23 04:15;0
2015-10-23 04:30;0
2015-10-23 04:45;0
2015-10-23 05:00;0
2015-10-23 05:15;0
2015-10-23 05:30;0
2015-10-23 05:45;0
2015-10-23 06:00;0
2015-10-23 06:15;0
2015-10-23 06:30;0
2015-10-23 06:45;0
2015-10-23 07:00;0
2015-10-23 07:15;0
2015-10-23 07:30;0
2015-10-23 07:45;0
2015-10-23 08:00;0
2015-10-23 08:15;0
2015-10-23 08:30;0
2015-10-23 08:45;0
2015-10-23 09:00;0
2015-10-23 09:15;0
2015-10-23 09:30;0
2015-10-23 09:45;0
2015-10-23 10:00;0
2015-10-23 10:15;0
2015-10-23 10:30;0
2015-10-23 10:45;0
2015-10-23 11:00;0
2015-10-23 11:15;0
2015-10-23 11:30;0
2015-10-23 11:45;0
2015-10-23 12:00;0
2015-10-23 12:15;0
2015-10-23 12:30;0
2015-10-23 12:45;0
2015-10-23 13:00;0
2015-10-23 13:15;0
2015-10-23 13:30;0
2015-10-23 13:45;0
2015-10-23 14:00;0
2015-10-23 14:15;0
2015-10-23 14:30;0
2015-10-23 14:45;0
2015-10-23 15:00;0
2015-10-23 15:15;0
2015-10-23 15:30;0
2015-10-23 15:45;0
2015-10-23 16:00;0
2015-10-23 16:15;0
2015-10-23 16:30;0
2015-10-23 16:45;0
2015-10-23 17:00;0
2015-10-23 17:15;0
2015-10-23 17:30;0
2015-10-23 17:45;0
2015-10-23 18:00;0
2015-10-23 18:15;0
2015-10-23 18:30;0
2015-10-23 18:45;0
2015-10-23 19:00;0
2015-10-23 19:15;0
2015-10-23 19:30;0
2015-10-23 19:45;0
2015-10-23 20:00;0
2015-10-23 20:15;0
2015-10-23 20:30;0
2015-10-23 20:45;0
2015-10-23 21:00;0
2015-10-23 21:15;0
2015-10-23 21:30;0
2015-10-23 21:45;0
2015-10-23 22:00;0
2015-10-23 22:15;0
2015-10-23 22:30;0
2015-10-23 22:45;0
2015-10-23 23:00;0
2015-10-23 23:15;0
2015-10-23 23:30;0
2015-10-23 23:45;0
2015-10-24 00:00;0
2015-10-24 00:15;0
2015-10-24 00:30;0
2015-10-24 00:45;0
2015-10-24 01:00;0
2015-10-24 01:15;0
2015-10-24 01:30;0
2015-10-24 01:45;0
2015-10-24 02:00;0
2015-10-24 02:15;0
2015-10-24 02:30;0
2015-10-24 02:45;0
2015-10-24 03:00;0
2015-10-24 03:15;0
2015-10-24 03:30;0
2015-10-24 03:45;0
2015-10-24 04:00;0
2015-10-24 04:15;0
2015-10-24 04:30;0
2015-10-24 04:45;0
2015-10-24 05:00;0
2015-10-24 05:15;0
2015-10-24 05:30;0
2015-10-24 05:45;0
2015-10-24 06:00;0
2015-10-24 06:15;0
2015-10-24 06:30;0
2015-10-24 06:45;0
2015-10-24 07:00;0
2015-10-24 07:15;0
2015-10-24 07:30;0
2015-10-24 07:45;0
2015-10-24 08:00;0
2015-10-24 08:15;0
2015-10-24 08:30;0
2015-10-24 08:45;0
2015-10-24 09:00;0
2015-10-24 09:15;0
2015-10-24 09:30;0
2015-10-24 09:45;0
2015-10-24 10:00;0
2015-10-24 10:15;0
2015-10-24 10:30;0
2015-10-24 10:45;0
2015-10-24 11:00;0
2015-10-24 11:15;0
2015-10-24 11:30;0
2015-10-24 11:45;0
2015-10-24 12:00;0
2015-10-24 12:15;0
2015-10-24 12:30;0
2015-10-24 12:45;0
2015-10-24 13:00;0
2015-10-24 13:15;0
2015-10-24 13:30;0
2015-10-24 13:45;0
2015-10-24 14:00;0
2015-10-24 14:15;0
2015-10-24 14:30;0
2015-10-24 14:45;0
2015-10-24 15:00;0
2015-10-24 15:15;0
2015-10-24 15:30;0
2015-10-24 15:45;0
2015-10-24 16:00;0
2015-10-24 16:15;0
2015-10-24 16:30;0
2015-10-24 16:45;0
2015-10-24 17:00;0
2015-10-24 17:15;0
2015-10-24 17:30;0
2015-10-24 17:45;0
2015-10-24 18:00;0
2015-10-24 18:15;0
2015-10-24 18:30;0
2015-10-24 18:45;0
2015-10-24 19:00;0
2015-10-24 19:15;0
2015-10-24 19:30;0
2015-10-24 19:45;0
2015-10-24 20:00;0
2015-10-24 20:15;0
2015-10-24 20:30;0
2015-10-24 20:45;0
2015-10-24 21:00;0
2015-10-24 21:15;0
2015-10-24 21:30;0
2015-10-24 21:45;0
2015-10-24 22:00;0
2015-10-24 22:15;0
2015-10-24 22:30;0
2015-10-24 22:45;0
2015-10-24 23:00;0
2015-10-24 23:15;0
2015-10-24 23:30;0
2015-10-24 23:45;0
2015-10-25 00:00;0
2015-10-25 00:15;0
2015-10-25 00:30;0
2015-10-25 00:45;0
2015-10-25 01:00;0
2015-10-25 01:15;0
2015-10-25 01:30;0
2015-10-25 01:45;0
2015-10-25 02:00;0
2015-10-25 02:15;0
2015-10-25 02:30;0
2015-10-25 02:45;0
2015-10-25 03:00;0
2015-10-25 03:15;0
2015-10-25 03:15;0
2015-10-25 03:30;0
2015-10-25 03:30;0
2015-10-25 03:45;0
2015-10-25 03:45;0
2015-10-25 04:00;0
2015-10-25 04:00;0
2015-10-25 04:15;0
2015-10-25 04:30;0
2015-10-25 04:45;0
2015-10-25 05:00;0
2015-10-25 05:15;0
2015-10-25 05:30;0
2015-10-25 05:45;0
2015-10-25 06:00;0
2015-10-25 06:15;0
2015-10-25 06:30;0
2015-10-25 06:45;0
2015-10-25 07:00;0
2015-10-25 07:15;0
2015-10-25 07:30;0
2015-10-25 07:45;0
2015-10-25 08:00;0
2015-10-25 08:15;0
2015-10-25 08:30;0
2015-10-25 08:45;0
2015-10-25 09:00;0
2015-10-25 09:15;0
2015-10-25 09:30;0
2015-10-25 09:45;0
2015-10-25 10:00;0
2015-10-25 10:15;0
2015-10-25 10:30;0
2015-10-25 10:45;0
2015-10-25 11:00;0
2015-10-25 11:15;0
2015-10-25 11:30;0
2015-10-25 11:45;0
2015-10-25 12:00;0
2015-10-25 12:15;0
2015-10-25 12:30;0
2015-10-25 12:45;0
2015-10-25 13:00;0
2015-10-25 13:15;0
2015-10-25 13:30;0
2015-10-25 13:45;0
2015-10-25 14:00;0
2015-10-25 14:15;0
2015-10-25 14:30;0
2015-10-25 14:45;0
2015-10-25 15:00;0
2015-10-25 15:15;0
2015-10-25 15:30;0
2015-10-25 15:45;0
2015-10-25 16:00;0
2015-10-25 16:15;0
2015-10-25 16:30;0
2015-10-25 16:45;0
2015-10-25 17:00;0
2015-10-25 17:15;0
2015-10-25 17:30;0
2015-10-25 17:45;0
2015-10-25 18:00;0
2015-10-25 18:15;0
2015-10-25 18:30;0
2015-10-25 18:45;0
2015-10-25 19:00;0
2015-10-25 19:15;0
2015-10-25 19:30;0
2015-10-25 19:45;0
2015-10-25 20:00;0
2015-10-25 20:15;0
2015-10-25 20:30;0
2015-10-25 20:45;0
2015-10-25 21:00;0
2015-10-25 21:15;0
2015-10-25 21:30;0
2015-10-25 21:45;0
2015-10-25 22:00;0
2015-10-25 22:15;0
2015-10-25 22:30;0
2015-10-25 22:45;0
2015-10-25 23:00;0
2015-10-25 23:15;0
2015-10-25 23:30;0
2015-10-25 23:45;0

